| time (UTC) | temp C | wind direction | speed KPH | gust KPH | rain 1hr cm | rain 24hr cm | rain mn cm | humidity % | barometer mb |
| 20260509235952 | 10 | 278 | 0.0 | 0.0 | 0.00 | 0.69 | 0.69 | 96 | 985.8 |
| 20260509235449 | 10 | 260 | 0.0 | 1.6 | 0.00 | 0.69 | 0.69 | 96 | 985.9 |
| 20260509234945 | 10 | 267 | 3.2 | 3.2 | 0.00 | 0.69 | 0.69 | 96 | 986.1 |
| 20260509234442 | 10 | 266 | 6.4 | 9.7 | 0.00 | 0.69 | 0.69 | 96 | 985.9 |
| 20260509233940 | 10 | 277 | 0.0 | 0.0 | 0.00 | 0.69 | 0.69 | 96 | 985.9 |
| 20260509233438 | 10 | 276 | 0.0 | 1.6 | 0.00 | 0.69 | 0.69 | 95 | 985.8 |
| 20260509232933 | 10 | 313 | 0.0 | 1.6 | 0.00 | 0.69 | 0.69 | 95 | 985.7 |
| 20260509232431 | 10 | 297 | 1.6 | 1.6 | 0.00 | 0.69 | 0.69 | 95 | 985.7 |
| 20260509231927 | 10 | 243 | 1.6 | 3.2 | 0.00 | 0.69 | 0.69 | 95 | 985.5 |
| 20260509231424 | 10 | 284 | 1.6 | 1.6 | 0.00 | 0.69 | 0.69 | 94 | 985.7 |
| 20260509230922 | 10 | 278 | 0.0 | 0.0 | 0.00 | 0.69 | 0.69 | 94 | 985.8 |
| 20260509230419 | 10 | 115 | 1.6 | 1.6 | 0.00 | 0.69 | 0.69 | 94 | 985.8 |
| 20260509225915 | 10 | 278 | 3.2 | 4.8 | 0.00 | 0.69 | 0.69 | 94 | 985.8 |
| 20260509225411 | 10 | 219 | 0.0 | 1.6 | 0.00 | 0.69 | 0.69 | 95 | 985.9 |
| 20260509224907 | 10 | 266 | 3.2 | 4.8 | 0.00 | 0.69 | 0.69 | 94 | 985.9 |
| 20260509224403 | 10 | 257 | 1.6 | 1.6 | 0.00 | 0.69 | 0.69 | 95 | 985.9 |
| 20260509223900 | 10 | 276 | 1.6 | 1.6 | 0.00 | 0.69 | 0.69 | 95 | 985.7 |
| 20260509223357 | 10 | 237 | 3.2 | 4.8 | 0.00 | 0.69 | 0.69 | 95 | 985.6 |
| 20260509222854 | 10 | 281 | 3.2 | 6.4 | 0.00 | 0.69 | 0.69 | 95 | 985.7 |
| 20260509222354 | 10 | 280 | 0.0 | 1.6 | 0.00 | 0.69 | 0.69 | 95 | 985.6 |
| 20260509221850 | 10 | 269 | 1.6 | 1.6 | 0.00 | 0.69 | 0.69 | 95 | 985.6 |
| 20260509221347 | 10 | 304 | 3.2 | 3.2 | 0.00 | 0.69 | 0.69 | 95 | 985.6 |
| 20260509220843 | 10 | 269 | 0.0 | 1.6 | 0.00 | 0.69 | 0.69 | 96 | 985.6 |
| 20260509220339 | 10 | 223 | 6.4 | 9.7 | 0.00 | 0.69 | 0.69 | 96 | 985.7 |
| 20260509215835 | 10 | 285 | 1.6 | 3.2 | 0.00 | 0.69 | 0.69 | 96 | 985.7 |
| 20260509215332 | 10 | 174 | 4.8 | 9.7 | 0.00 | 0.69 | 0.69 | 95 | 985.7 |
| 20260509214829 | 10 | 247 | 1.6 | 1.6 | 0.00 | 0.69 | 0.69 | 95 | 986.0 |
| 20260509214326 | 10 | 283 | 6.4 | 16.1 | 0.00 | 0.69 | 0.69 | 96 | 985.9 |
| 20260509213823 | 10 | 195 | 6.4 | 9.7 | 0.00 | 0.69 | 0.69 | 95 | 985.9 |
| 20260509213318 | 10 | 302 | 1.6 | 1.6 | 0.00 | 0.69 | 0.69 | 96 | 986.0 |
| 20260509212816 | 10 | 78 | 4.8 | 4.8 | 0.00 | 0.69 | 0.69 | 96 | 985.8 |
| 20260509212313 | 10 | 261 | 1.6 | 1.6 | 0.00 | 0.69 | 0.69 | 96 | 986.0 |
| 20260509211809 | 10 | 152 | 4.8 | 6.4 | 0.00 | 0.69 | 0.69 | 96 | 986.1 |
| 20260509211305 | 10 | 82 | 4.8 | 6.4 | 0.00 | 0.69 | 0.69 | 96 | 986.0 |
| 20260509210802 | 10 | 250 | 3.2 | 4.8 | 0.00 | 0.69 | 0.69 | 96 | 986.2 |
| 20260509210300 | 10 | 303 | 6.4 | 11.3 | 0.00 | 0.69 | 0.69 | 96 | 986.2 |
| 20260509205759 | 10 | 297 | 1.6 | 3.2 | 0.00 | 0.69 | 0.69 | 96 | 986.1 |
| 20260509205254 | 10 | 246 | 3.2 | 3.2 | 0.00 | 0.69 | 0.69 | 96 | 986.2 |
| 20260509204750 | 10 | 288 | 0.0 | 1.6 | 0.00 | 0.69 | 0.69 | 96 | 986.3 |
| 20260509204246 | 10 | 255 | 6.4 | 12.9 | 0.00 | 0.69 | 0.69 | 96 | 986.3 |
| 20260509203743 | 10 | 291 | 0.0 | 1.6 | 0.00 | 0.69 | 0.69 | 96 | 986.2 |
| 20260509203241 | 10 | 307 | 3.2 | 4.8 | 0.00 | 0.69 | 0.69 | 96 | 986.5 |
| 20260509202736 | 10 | 248 | 3.2 | 3.2 | 0.00 | 0.69 | 0.69 | 96 | 986.6 |
| 20260509202232 | 10 | 276 | 4.8 | 6.4 | 0.00 | 0.69 | 0.69 | 96 | 986.4 |
| 20260509201727 | 10 | 286 | 3.2 | 3.2 | 0.00 | 0.69 | 0.69 | 96 | 986.4 |
| 20260509201224 | 10 | 273 | 1.6 | 3.2 | 0.00 | 0.69 | 0.69 | 96 | 986.5 |
| 20260509200721 | 10 | 286 | 1.6 | 1.6 | 0.00 | 0.69 | 0.69 | 96 | 986.6 |
| 20260509200220 | 10 | 182 | 3.2 | 4.8 | 0.00 | 0.69 | 0.69 | 96 | 986.4 |
| 20260509195717 | 10 | 281 | 0.0 | 0.0 | 0.00 | 0.69 | 0.69 | 96 | 986.5 |
| 20260509195213 | 10 | 279 | 1.6 | 3.2 | 0.00 | 0.69 | 0.69 | 96 | 986.6 |
| 20260509194713 | 10 | 266 | 1.6 | 3.2 | 0.00 | 0.69 | 0.69 | 96 | 986.6 |
| 20260509194210 | 10 | 281 | 0.0 | 1.6 | 0.00 | 0.69 | 0.69 | 97 | 986.5 |
| 20260509193706 | 9 | 274 | 4.8 | 4.8 | 0.00 | 0.69 | 0.69 | 97 | 986.7 |
| 20260509193206 | 9 | 279 | 0.0 | 0.0 | 0.00 | 0.69 | 0.69 | 97 | 986.8 |
| 20260509192703 | 9 | 290 | 4.8 | 4.8 | 0.00 | 0.69 | 0.69 | 97 | 987.0 |
| 20260509192158 | 9 | 290 | 4.8 | 6.4 | 0.00 | 0.69 | 0.69 | 96 | 987.0 |
| 20260509191653 | 9 | 263 | 0.0 | 1.6 | 0.00 | 0.69 | 0.69 | 97 | 987.1 |
| 20260509191150 | 9 | 278 | 3.2 | 3.2 | 0.00 | 0.69 | 0.69 | 97 | 987.0 |
| 20260509190646 | 9 | 229 | 3.2 | 4.8 | 0.00 | 0.69 | 0.69 | 96 | 986.9 |
| 20260509190144 | 9 | 302 | 9.7 | 12.9 | 0.00 | 0.69 | 0.69 | 96 | 987.1 |
| 20260509185642 | 9 | 274 | 1.6 | 1.6 | 0.00 | 0.69 | 0.69 | 97 | 987.0 |
| 20260509185137 | 9 | 253 | 3.2 | 4.8 | 0.00 | 0.69 | 0.69 | 97 | 987.1 |
| 20260509184635 | 9 | 288 | 1.6 | 1.6 | 0.00 | 0.69 | 0.69 | 97 | 987.0 |
| 20260509184132 | 9 | 303 | 0.0 | 1.6 | 0.00 | 0.69 | 0.69 | 98 | 987.0 |
| 20260509183628 | 9 | 267 | 3.2 | 3.2 | 0.00 | 0.69 | 0.69 | 97 | 987.1 |
| 20260509183123 | 9 | 289 | 3.2 | 4.8 | 0.00 | 0.69 | 0.69 | 97 | 987.1 |
| 20260509182619 | 9 | 244 | 1.6 | 3.2 | 0.00 | 0.69 | 0.69 | 97 | 987.2 |
| 20260509182117 | 9 | 294 | 3.2 | 3.2 | 0.13 | 0.69 | 0.69 | 98 | 987.1 |
| 20260509181615 | 9 | 284 | 6.4 | 9.7 | 0.13 | 0.69 | 0.69 | 98 | 987.2 |
| 20260509181112 | 9 | 261 | 1.6 | 1.6 | 0.00 | 0.66 | 0.66 | 98 | 987.1 |
| 20260509180608 | 9 | 281 | 1.6 | 1.6 | 0.00 | 0.66 | 0.66 | 98 | 987.1 |
| 20260509180105 | 8 | 293 | 1.6 | 3.2 | 0.00 | 0.66 | 0.66 | 98 | 987.2 |
| 20260509175600 | 8 | 296 | 0.0 | 0.0 | 0.00 | 0.66 | 0.66 | 98 | 987.2 |
| 20260509175058 | 9 | 309 | 3.2 | 3.2 | 0.00 | 0.66 | 0.66 | 98 | 987.2 |
| 20260509174554 | 9 | 262 | 6.4 | 9.7 | 0.00 | 0.66 | 0.66 | 98 | 987.0 |
| 20260509174049 | 9 | 288 | 0.0 | 1.6 | 0.00 | 0.66 | 0.66 | 98 | 986.9 |
| 20260509173544 | 9 | 272 | 0.0 | 1.6 | 0.00 | 0.66 | 0.66 | 98 | 986.8 |
| 20260509173040 | 8 | 255 | 1.6 | 3.2 | 0.00 | 0.66 | 0.66 | 98 | 987.0 |
| 20260509172538 | 9 | 271 | 0.0 | 1.6 | 0.00 | 0.66 | 0.66 | 98 | 986.9 |
| 20260509172033 | 9 | 270 | 3.2 | 4.8 | 0.00 | 0.66 | 0.66 | 98 | 986.9 |
| 20260509171529 | 9 | 295 | 1.6 | 1.6 | 0.00 | 0.66 | 0.66 | 98 | 986.8 |
| 20260509171026 | 9 | 298 | 1.6 | 1.6 | 0.00 | 0.66 | 0.66 | 97 | 986.9 |
| 20260509170521 | 9 | 116 | 3.2 | 4.8 | 0.00 | 0.66 | 0.66 | 97 | 986.8 |
| 20260509170018 | 9 | 257 | 3.2 | 3.2 | 0.00 | 0.66 | 0.66 | 98 | 987.0 |
| 20260509165516 | 8 | 286 | 1.6 | 4.8 | 0.18 | 0.66 | 0.66 | 98 | 987.0 |
| 20260509165012 | 8 | 247 | 8.0 | 11.3 | 0.18 | 0.66 | 0.66 | 98 | 987.1 |
| 20260509164509 | 8 | 277 | 3.2 | 4.8 | 0.00 | 0.64 | 0.64 | 97 | 987.2 |
| 20260509164004 | 9 | 128 | 1.6 | 3.2 | 0.00 | 0.64 | 0.64 | 98 | 987.1 |
| 20260509163502 | 8 | 255 | 6.4 | 9.7 | 0.00 | 0.64 | 0.64 | 98 | 987.1 |
| 20260509163001 | 8 | 253 | 3.2 | 4.8 | 0.13 | 0.64 | 0.64 | 98 | 987.2 |
| 20260509162500 | 8 | 224 | 6.4 | 9.7 | 0.13 | 0.64 | 0.64 | 98 | 987.1 |
| 20260509161955 | 8 | 276 | 4.8 | 6.4 | 0.00 | 0.61 | 0.61 | 98 | 987.4 |
| 20260509161452 | 8 | 283 | 6.4 | 9.7 | 0.00 | 0.61 | 0.61 | 98 | 987.4 |
| 20260509160947 | 8 | 298 | 1.6 | 1.6 | 0.18 | 0.61 | 0.61 | 98 | 987.4 |
| 20260509160443 | 8 | 49 | 1.6 | 3.2 | 0.18 | 0.61 | 0.61 | 98 | 987.5 |
| 20260509155938 | 8 | 279 | 1.6 | 4.8 | 0.18 | 0.61 | 0.61 | 98 | 987.6 |
| 20260509155435 | 8 | 258 | 0.0 | 0.0 | 0.00 | 0.58 | 0.58 | 98 | 987.4 |
| 20260509154932 | 8 | 297 | 1.6 | 1.6 | 0.00 | 0.58 | 0.58 | 98 | 987.6 |
| 20260509154428 | 8 | 6 | 3.2 | 3.2 | 0.00 | 0.58 | 0.58 | 98 | 987.5 |
| 20260509153925 | 8 | 280 | 3.2 | 3.2 | 0.00 | 0.58 | 0.58 | 98 | 987.6 |
| 20260509153422 | 8 | 301 | 1.6 | 3.2 | 0.18 | 0.58 | 0.58 | 98 | 987.7 |
| 20260509152919 | 8 | 271 | 4.8 | 4.8 | 0.18 | 0.58 | 0.58 | 98 | 987.7 |
| 20260509152415 | 8 | 291 | 1.6 | 3.2 | 0.18 | 0.58 | 0.58 | 97 | 987.8 |
| 20260509151912 | 8 | 248 | 1.6 | 3.2 | 0.00 | 0.56 | 0.56 | 97 | 987.8 |
| 20260509151408 | 8 | 260 | 3.2 | 3.2 | 0.13 | 0.56 | 0.56 | 98 | 987.9 |
| 20260509150907 | 8 | 282 | 0.0 | 1.6 | 0.13 | 0.56 | 0.56 | 98 | 988.0 |
| 20260509150404 | 8 | 1 | 1.6 | 3.2 | 0.18 | 0.53 | 0.53 | 98 | 988.0 |
| 20260509145902 | 8 | 286 | 1.6 | 1.6 | 0.18 | 0.53 | 0.53 | 98 | 988.0 |
| 20260509145401 | 8 | 278 | 1.6 | 3.2 | 0.13 | 0.51 | 0.51 | 98 | 988.4 |
| 20260509144858 | 8 | 278 | 3.2 | 3.2 | 0.13 | 0.51 | 0.51 | 98 | 988.2 |
| 20260509144355 | 8 | 34 | 1.6 | 3.2 | 0.18 | 0.48 | 0.48 | 98 | 988.2 |
| 20260509143852 | 8 | 311 | 0.0 | 1.6 | 0.18 | 0.48 | 0.48 | 98 | 988.2 |
| 20260509143349 | 8 | 305 | 1.6 | 3.2 | 0.13 | 0.46 | 0.46 | 98 | 988.2 |
| 20260509142845 | 8 | 326 | 1.6 | 1.6 | 0.13 | 0.46 | 0.46 | 98 | 988.4 |
| 20260509142341 | 8 | 267 | 0.0 | 0.0 | 0.18 | 0.43 | 0.43 | 98 | 988.2 |
| 20260509141837 | 8 | 304 | 1.6 | 1.6 | 0.18 | 0.43 | 0.43 | 98 | 988.2 |
| 20260509141335 | 8 | 285 | 1.6 | 1.6 | 0.00 | 0.41 | 0.41 | 98 | 988.1 |
| 20260509140831 | 8 | 281 | 0.0 | 1.6 | 0.00 | 0.41 | 0.41 | 98 | 988.4 |
| 20260509140328 | 8 | 277 | 3.2 | 3.2 | 0.13 | 0.41 | 0.41 | 98 | 988.2 |
| 20260509135826 | 8 | 284 | 1.6 | 3.2 | 0.13 | 0.41 | 0.41 | 98 | 988.2 |
| 20260509135323 | 7 | 287 | 0.0 | 0.0 | 0.00 | 0.38 | 0.38 | 99 | 988.2 |
| 20260509134820 | 7 | 41 | 3.2 | 4.8 | 0.18 | 0.38 | 0.38 | 98 | 988.2 |
| 20260509134318 | 7 | 306 | 0.0 | 0.0 | 0.18 | 0.38 | 0.38 | 99 | 988.4 |
| 20260509133814 | 7 | 280 | 1.6 | 3.2 | 0.13 | 0.36 | 0.36 | 98 | 988.5 |
| 20260509133311 | 7 | 284 | 0.0 | 1.6 | 0.13 | 0.36 | 0.36 | 99 | 988.5 |
| 20260509132810 | 7 | 290 | 0.0 | 0.0 | 0.00 | 0.33 | 0.33 | 99 | 988.6 |
| 20260509132308 | 7 | 280 | 0.0 | 1.6 | 0.18 | 0.33 | 0.33 | 99 | 988.5 |
| 20260509131804 | 7 | 274 | 0.0 | 0.0 | 0.18 | 0.33 | 0.33 | 98 | 988.5 |
| 20260509131301 | 7 | 262 | 1.6 | 3.2 | 0.13 | 0.30 | 0.30 | 98 | 988.6 |
| 20260509130757 | 7 | 280 | 0.0 | 0.0 | 0.13 | 0.30 | 0.30 | 98 | 988.6 |
| 20260509130253 | 7 | 315 | 0.0 | 0.0 | 0.18 | 0.28 | 0.28 | 98 | 988.5 |
| 20260509125750 | 7 | 276 | 0.0 | 0.0 | 0.18 | 0.28 | 0.28 | 98 | 988.7 |
| 20260509125247 | 7 | 349 | 0.0 | 0.0 | 0.18 | 0.25 | 0.25 | 98 | 988.7 |
| 20260509124743 | 7 | 289 | 0.0 | 0.0 | 0.30 | 0.25 | 0.25 | 98 | 988.7 |
| 20260509124240 | 7 | 283 | 0.0 | 0.0 | 0.43 | 0.23 | 0.23 | 98 | 988.6 |
| 20260509123738 | 7 | 299 | 3.2 | 3.2 | 0.48 | 0.20 | 0.20 | 98 | 988.6 |
| 20260509123235 | 7 | 279 | 0.0 | 1.6 | 0.30 | 0.15 | 0.15 | 98 | 988.6 |
| 20260509122731 | 7 | 263 | 1.6 | 1.6 | 0.30 | 0.13 | 0.13 | 98 | 988.9 |
| 20260509122227 | 6 | 290 | 1.6 | 1.6 | 0.30 | 0.10 | 0.10 | 98 | 988.8 |
| 20260509121724 | 7 | 264 | 1.6 | 1.6 | 0.13 | 0.08 | 0.08 | 98 | 988.8 |
| 20260509121222 | 6 | 250 | 1.6 | 1.6 | 0.30 | 0.08 | 0.08 | 98 | 989.0 |
| 20260509120720 | 6 | 273 | 0.0 | 1.6 | 0.18 | 0.05 | 0.05 | 98 | 988.8 |
| 20260509120217 | 6 | 283 | 0.0 | 0.0 | 0.13 | 0.03 | 0.03 | 98 | 988.8 |
| 20260509115715 | 6 | 293 | 0.0 | 0.0 | 0.13 | 0.03 | 0.03 | 98 | 988.9 |
| 20260509115212 | 6 | 267 | 0.0 | 0.0 | 0.00 | 0.00 | 0.00 | 98 | 988.9 |
| 20260509114711 | 6 | 275 | 0.0 | 1.6 | 0.00 | 0.00 | 0.00 | 98 | 989.0 |
| 20260509114209 | 6 | 251 | 1.6 | 3.2 | 0.00 | 0.00 | 0.00 | 97 | 988.9 |
| 20260509113707 | 6 | 281 | 0.0 | 0.0 | 0.00 | 0.00 | 0.00 | 97 | 988.8 |
| 20260509113204 | 6 | 246 | 1.6 | 1.6 | 0.00 | 0.00 | 0.00 | 98 | 988.8 |
| 20260509112700 | 6 | 264 | 3.2 | 4.8 | 0.00 | 0.00 | 0.00 | 97 | 988.7 |
| 20260509112158 | 6 | 265 | 0.0 | 1.6 | 0.00 | 0.00 | 0.00 | 97 | 989.0 |
| 20260509111655 | 6 | 279 | 1.6 | 1.6 | 0.00 | 0.00 | 0.00 | 97 | 989.0 |
| 20260509111151 | 6 | 281 | 1.6 | 3.2 | 0.00 | 0.00 | 0.00 | 97 | 988.9 |
| 20260509110649 | 6 | 282 | 0.0 | 1.6 | 0.00 | 0.00 | 0.00 | 97 | 988.9 |
| 20260509110145 | 6 | 286 | 1.6 | 1.6 | 0.00 | 0.00 | 0.00 | 97 | 988.6 |
| 20260509105644 | 6 | 353 | 4.8 | 6.4 | 0.00 | 0.00 | 0.00 | 97 | 988.6 |
| 20260509105141 | 6 | 326 | 4.8 | 4.8 | 0.00 | 0.00 | 0.00 | 97 | 988.7 |
| 20260509104638 | 6 | 320 | 0.0 | 1.6 | 0.00 | 0.00 | 0.00 | 96 | 988.7 |
| 20260509104134 | 6 | 217 | 3.2 | 3.2 | 0.00 | 0.00 | 0.00 | 96 | 988.6 |
| 20260509103632 | 6 | 238 | 1.6 | 4.8 | 0.00 | 0.00 | 0.00 | 96 | 988.4 |
| 20260509103130 | 6 | 259 | 6.4 | 9.7 | 0.00 | 0.00 | 0.00 | 96 | 988.5 |
| 20260509102627 | 6 | 276 | 8.0 | 9.7 | 0.00 | 0.00 | 0.00 | 96 | 988.6 |
| 20260509102124 | 6 | 273 | 1.6 | 1.6 | 0.00 | 0.00 | 0.00 | 96 | 988.2 |
| 20260509101621 | 5 | 258 | 0.0 | 1.6 | 0.00 | 0.00 | 0.00 | 95 | 988.4 |
| 20260509101117 | 5 | 304 | 3.2 | 4.8 | 0.00 | 0.00 | 0.00 | 95 | 988.4 |
| 20260509100614 | 5 | 285 | 0.0 | 0.0 | 0.00 | 0.00 | 0.00 | 95 | 988.4 |
| 20260509100112 | 5 | 297 | 1.6 | 1.6 | 0.00 | 0.00 | 0.00 | 94 | 988.2 |
| 20260509095608 | 5 | 239 | 0.0 | 1.6 | 0.00 | 0.00 | 0.00 | 94 | 988.5 |
| 20260509095106 | 5 | 275 | 0.0 | 0.0 | 0.00 | 0.00 | 0.00 | 93 | 988.5 |
| 20260509094602 | 5 | 274 | 0.0 | 0.0 | 0.00 | 0.00 | 0.00 | 93 | 988.5 |
| 20260509094059 | 5 | 267 | 1.6 | 1.6 | 0.00 | 0.00 | 0.00 | 92 | 988.4 |
| 20260509093558 | 5 | 288 | 1.6 | 1.6 | 0.00 | 0.00 | 0.00 | 92 | 988.6 |
| 20260509093055 | 5 | 270 | 1.6 | 1.6 | 0.00 | 0.00 | 0.00 | 91 | 988.7 |
| 20260509092552 | 5 | 239 | 0.0 | 1.6 | 0.00 | 0.00 | 0.00 | 90 | 988.7 |
| 20260509092051 | 5 | 291 | 0.0 | 1.6 | 0.00 | 0.00 | 0.00 | 90 | 988.7 |
| 20260509091548 | 5 | 280 | 1.6 | 1.6 | 0.00 | 0.00 | 0.00 | 89 | 988.8 |
| 20260509091044 | 5 | 270 | 0.0 | 0.0 | 0.00 | 0.00 | 0.00 | 90 | 988.5 |
| 20260509090542 | 5 | 269 | 3.2 | 3.2 | 0.00 | 0.00 | 0.00 | 90 | 988.7 |
| 20260509090040 | 5 | 294 | 1.6 | 1.6 | 0.00 | 0.00 | 0.00 | 88 | 988.7 |
| 20260509085536 | 5 | 266 | 0.0 | 0.0 | 0.00 | 0.00 | 0.00 | 89 | 988.8 |
| 20260509085032 | 5 | 334 | 1.6 | 1.6 | 0.00 | 0.00 | 0.00 | 89 | 989.0 |
| 20260509084530 | 5 | 275 | 0.0 | 0.0 | 0.00 | 0.00 | 0.00 | 88 | 988.9 |
| 20260509084027 | 5 | 242 | 1.6 | 3.2 | 0.00 | 0.00 | 0.00 | 88 | 988.9 |
| 20260509083524 | 5 | 267 | 1.6 | 1.6 | 0.00 | 0.00 | 0.00 | 88 | 988.9 |
| 20260509083020 | 5 | 294 | 0.0 | 0.0 | 0.00 | 0.00 | 0.00 | 88 | 989.0 |
| 20260509082518 | 5 | 267 | 0.0 | 3.2 | 0.00 | 0.00 | 0.00 | 87 | 988.9 |
| 20260509082015 | 5 | 329 | 1.6 | 1.6 | 0.00 | 0.00 | 0.00 | 86 | 989.1 |
| 20260509081512 | 5 | 306 | 1.6 | 1.6 | 0.00 | 0.00 | 0.00 | 85 | 989.0 |
| 20260509081009 | 5 | 322 | 1.6 | 1.6 | 0.00 | 0.00 | 0.00 | 84 | 989.0 |
| 20260509080507 | 5 | 280 | 0.0 | 1.6 | 0.00 | 0.00 | 0.00 | 82 | 989.0 |
| 20260509080005 | 5 | 314 | 1.6 | 1.6 | 0.00 | 0.00 | 0.00 | 80 | 989.2 |
| 20260509075502 | 5 | 321 | 1.6 | 1.6 | 0.00 | 0.00 | 0.00 | 78 | 989.2 |
| 20260509074959 | 5 | 304 | 1.6 | 1.6 | 0.00 | 0.00 | 0.00 | 80 | 989.4 |
| 20260509074457 | 5 | 281 | 0.0 | 0.0 | 0.00 | 0.00 | 0.00 | 81 | 989.3 |
| 20260509073953 | 5 | 306 | 0.0 | 0.0 | 0.00 | 0.00 | 0.00 | 80 | 989.1 |
| 20260509073449 | 5 | 305 | 0.0 | 1.6 | 0.00 | 0.00 | 0.00 | 75 | 988.9 |
| 20260509072946 | 5 | 300 | 0.0 | 0.0 | 0.00 | 0.00 | 0.00 | 72 | 989.1 |
| 20260509072443 | 5 | 300 | 0.0 | 0.0 | 0.00 | 0.00 | 0.00 | 77 | 989.0 |
| 20260509071940 | 5 | 300 | 0.0 | 0.0 | 0.00 | 0.00 | 0.00 | 73 | 989.0 |
| 20260509071436 | 5 | 300 | 0.0 | 0.0 | 0.00 | 0.00 | 0.00 | 75 | 989.1 |
| 20260509070934 | 5 | 300 | 0.0 | 0.0 | 0.00 | 0.00 | 0.00 | 70 | 989.1 |
| 20260509070431 | 5 | 300 | 0.0 | 0.0 | 0.00 | 0.00 | 0.00 | 70 | 989.1 |
| 20260509065926 | 5 | 297 | 0.0 | 1.6 | 0.00 | 0.00 | 0.00 | 74 | 989.2 |
| 20260509065422 | 5 | 271 | 0.0 | 0.0 | 0.00 | 0.00 | 0.00 | 73 | 989.2 |
| 20260509064919 | 5 | 271 | 0.0 | 0.0 | 0.00 | 0.00 | 0.00 | 74 | 989.2 |
| 20260509064416 | 4 | 271 | 0.0 | 0.0 | 0.00 | 0.00 | 0.00 | 71 | 989.4 |
| 20260509063914 | 4 | 271 | 0.0 | 0.0 | 0.00 | 0.00 | 0.00 | 69 | 989.3 |
| 20260509063410 | 4 | 271 | 1.6 | 1.6 | 0.00 | 0.00 | 0.00 | 71 | 989.4 |
| 20260509062907 | 4 | 270 | 0.0 | 0.0 | 0.00 | 0.00 | 0.00 | 71 | 989.3 |
| 20260509062404 | 3 | 270 | 0.0 | 0.0 | 0.00 | 0.00 | 0.00 | 71 | 989.4 |
| 20260509061901 | 3 | 270 | 0.0 | 0.0 | 0.00 | 0.00 | 0.00 | 71 | 989.4 |
| 20260509061359 | 3 | 270 | 0.0 | 0.0 | 0.00 | 0.00 | 0.00 | 72 | 989.6 |
| 20260509060856 | 3 | 270 | 0.0 | 0.0 | 0.00 | 0.00 | 0.00 | 70 | 989.6 |
| 20260509060353 | 3 | 270 | 0.0 | 0.0 | 0.00 | 0.00 | 0.00 | 73 | 989.5 |
| 20260509055848 | 3 | 270 | 0.0 | 0.0 | 0.00 | 0.00 | 0.00 | 73 | 989.6 |
| 20260509055344 | 3 | 270 | 0.0 | 0.0 | 0.00 | 0.00 | 0.00 | 74 | 989.6 |
| 20260509054841 | 3 | 270 | 0.0 | 0.0 | 0.00 | 0.00 | 0.00 | 72 | 989.8 |
| 20260509054338 | 3 | 270 | 0.0 | 0.0 | 0.00 | 0.00 | 0.00 | 74 | 990.2 |
| 20260509053836 | 3 | 270 | 0.0 | 0.0 | 0.00 | 0.00 | 0.00 | 71 | 989.9 |
| 20260509053333 | 3 | 270 | 0.0 | 0.0 | 0.00 | 0.00 | 0.00 | 71 | 990.1 |
| 20260509052831 | 3 | 270 | 0.0 | 0.0 | 0.00 | 0.00 | 0.00 | 70 | 990.1 |
| 20260509052329 | 3 | 270 | 0.0 | 0.0 | 0.00 | 0.00 | 0.00 | 70 | 990.1 |
| 20260509051826 | 3 | 270 | 0.0 | 0.0 | 0.00 | 0.00 | 0.00 | 72 | 990.0 |
| 20260509051324 | 3 | 270 | 0.0 | 0.0 | 0.00 | 0.00 | 0.00 | 69 | 990.1 |
| 20260509050820 | 3 | 271 | 0.0 | 1.6 | 0.00 | 0.00 | 0.00 | 69 | 990.1 |
| 20260509050317 | 3 | 271 | 0.0 | 0.0 | 0.00 | 0.00 | 0.00 | 69 | 990.2 |
| 20260509045814 | 3 | 271 | 0.0 | 0.0 | 0.00 | 0.23 | 0.23 | 69 | 990.2 |
| 20260509045311 | 3 | 271 | 0.0 | 0.0 | 0.00 | 0.23 | 0.23 | 69 | 990.1 |
| 20260509044808 | 3 | 270 | 0.0 | 1.6 | 0.00 | 0.23 | 0.23 | 68 | 990.2 |
| 20260509044306 | 3 | 270 | 0.0 | 0.0 | 0.00 | 0.23 | 0.23 | 69 | 990.1 |
| 20260509043802 | 3 | 270 | 0.0 | 0.0 | 0.00 | 0.23 | 0.23 | 70 | 990.1 |
| 20260509043258 | 3 | 270 | 0.0 | 0.0 | 0.00 | 0.23 | 0.23 | 74 | 990.2 |
| 20260509042754 | 3 | 270 | 0.0 | 1.6 | 0.00 | 0.23 | 0.23 | 70 | 990.3 |
| 20260509042250 | 3 | 270 | 0.0 | 0.0 | 0.00 | 0.23 | 0.23 | 70 | 990.3 |
| 20260509041747 | 3 | 270 | 0.0 | 0.0 | 0.00 | 0.23 | 0.23 | 68 | 990.4 |
| 20260509041244 | 3 | 270 | 0.0 | 0.0 | 0.00 | 0.23 | 0.23 | 72 | 990.4 |
| 20260509040743 | 4 | 271 | 0.0 | 0.0 | 0.00 | 0.23 | 0.23 | 67 | 990.3 |
| 20260509040240 | 3 | 270 | 0.0 | 1.6 | 0.00 | 0.23 | 0.23 | 70 | 990.3 |
| 20260509035736 | 3 | 271 | 0.0 | 0.0 | 0.00 | 0.23 | 0.23 | 74 | 990.2 |
| 20260509035233 | 4 | 271 | 0.0 | 0.0 | 0.00 | 0.23 | 0.23 | 67 | 990.3 |
| 20260509034730 | 4 | 271 | 0.0 | 0.0 | 0.00 | 0.23 | 0.23 | 64 | 990.1 |
| 20260509034228 | 4 | 271 | 0.0 | 0.0 | 0.00 | 0.23 | 0.23 | 66 | 990.3 |
| 20260509033725 | 4 | 270 | 1.6 | 1.6 | 0.00 | 0.23 | 0.23 | 69 | 990.4 |
| 20260509033222 | 5 | 271 | 0.0 | 0.0 | 0.00 | 0.23 | 0.23 | 66 | 990.4 |
| 20260509032719 | 5 | 271 | 0.0 | 0.0 | 0.00 | 0.23 | 0.23 | 67 | 990.4 |
| 20260509032216 | 5 | 271 | 0.0 | 0.0 | 0.00 | 0.23 | 0.23 | 69 | 990.5 |
| 20260509031713 | 5 | 272 | 0.0 | 0.0 | 0.00 | 0.23 | 0.23 | 66 | 990.5 |
| 20260509031211 | 5 | 273 | 0.0 | 0.0 | 0.00 | 0.23 | 0.23 | 63 | 990.4 |
| 20260509030709 | 5 | 273 | 0.0 | 0.0 | 0.00 | 0.23 | 0.23 | 69 | 990.6 |
| 20260509030205 | 5 | 273 | 0.0 | 0.0 | 0.00 | 0.23 | 0.23 | 67 | 990.4 |
| 20260509025701 | 5 | 273 | 0.0 | 0.0 | 0.00 | 0.23 | 0.23 | 69 | 990.5 |
| 20260509025158 | 5 | 272 | 0.0 | 0.0 | 0.00 | 0.23 | 0.23 | 69 | 990.5 |
| 20260509024653 | 5 | 273 | 0.0 | 0.0 | 0.00 | 0.23 | 0.23 | 71 | 990.5 |
| 20260509024149 | 5 | 273 | 0.0 | 0.0 | 0.00 | 0.23 | 0.23 | 66 | 990.5 |
| 20260509023647 | 5 | 273 | 0.0 | 0.0 | 0.00 | 0.23 | 0.23 | 68 | 990.5 |
| 20260509023144 | 5 | 273 | 0.0 | 0.0 | 0.00 | 0.23 | 0.23 | 69 | 990.6 |
| 20260509022640 | 5 | 273 | 0.0 | 0.0 | 0.00 | 0.23 | 0.23 | 66 | 990.6 |
| 20260509022138 | 5 | 273 | 0.0 | 0.0 | 0.00 | 0.23 | 0.23 | 69 | 990.7 |
| 20260509021635 | 5 | 273 | 0.0 | 0.0 | 0.00 | 0.23 | 0.23 | 68 | 990.7 |
| 20260509021132 | 5 | 273 | 0.0 | 0.0 | 0.00 | 0.23 | 0.23 | 68 | 990.9 |
| 20260509020630 | 5 | 273 | 0.0 | 0.0 | 0.00 | 0.23 | 0.23 | 65 | 990.4 |
| 20260509020126 | 5 | 273 | 0.0 | 0.0 | 0.00 | 0.23 | 0.23 | 71 | 990.6 |
| 20260509015626 | 5 | 273 | 0.0 | 0.0 | 0.00 | 0.23 | 0.23 | 67 | 990.5 |
| 20260509015123 | 5 | 273 | 0.0 | 0.0 | 0.00 | 0.23 | 0.23 | 64 | 990.4 |
| 20260509014619 | 4 | 273 | 0.0 | 0.0 | 0.00 | 0.23 | 0.23 | 66 | 990.3 |
| 20260509014115 | 5 | 273 | 0.0 | 0.0 | 0.00 | 0.23 | 0.23 | 66 | 990.5 |
| 20260509013613 | 5 | 273 | 0.0 | 0.0 | 0.00 | 0.23 | 0.23 | 66 | 990.3 |
| 20260509013108 | 5 | 273 | 0.0 | 0.0 | 0.00 | 0.23 | 0.23 | 66 | 990.3 |
| 20260509012605 | 5 | 273 | 0.0 | 0.0 | 0.00 | 0.23 | 0.23 | 66 | 990.4 |
| 20260509012102 | 5 | 273 | 0.0 | 0.0 | 0.00 | 0.23 | 0.23 | 66 | 990.0 |
| 20260509011600 | 5 | 273 | 0.0 | 0.0 | 0.00 | 0.23 | 0.23 | 64 | 990.1 |
| 20260509011056 | 5 | 273 | 0.0 | 0.0 | 0.00 | 0.23 | 0.23 | 66 | 990.0 |
| 20260509010554 | 5 | 273 | 0.0 | 0.0 | 0.00 | 0.23 | 0.23 | 65 | 990.0 |
| 20260509010051 | 5 | 273 | 0.0 | 0.0 | 0.00 | 0.23 | 0.23 | 65 | 989.9 |
| 20260509005549 | 5 | 273 | 0.0 | 0.0 | 0.00 | 0.23 | 0.23 | 67 | 990.0 |
| 20260509005044 | 5 | 273 | 0.0 | 0.0 | 0.00 | 0.23 | 0.23 | 66 | 989.7 |
| 20260509004541 | 5 | 273 | 0.0 | 1.6 | 0.00 | 0.23 | 0.23 | 68 | 989.9 |
| 20260509004038 | 5 | 273 | 0.0 | 0.0 | 0.00 | 0.23 | 0.23 | 68 | 989.6 |
| 20260509003536 | 5 | 273 | 0.0 | 0.0 | 0.00 | 0.23 | 0.23 | 66 | 989.7 |
| 20260509003033 | 5 | 273 | 0.0 | 0.0 | 0.00 | 0.23 | 0.23 | 65 | 989.6 |
| 20260509002531 | 5 | 273 | 0.0 | 0.0 | 0.00 | 0.23 | 0.23 | 64 | 989.6 |
| 20260509002028 | 5 | 272 | 0.0 | 1.6 | 0.00 | 0.23 | 0.23 | 66 | 989.5 |
| 20260509001525 | 5 | 273 | 0.0 | 0.0 | 0.00 | 0.23 | 0.23 | 65 | 989.4 |
| 20260509001021 | 5 | 272 | 0.0 | 0.0 | 0.00 | 0.23 | 0.23 | 65 | 989.4 |
| 20260509000520 | 5 | 273 | 0.0 | 0.0 | 0.00 | 0.23 | 0.23 | 68 | 989.3 |